Location: Newark
(3.0500°N, 36.0167°E)
Time: 19:48:42
(UTC+00:00)

Altair - Visible Passes

Search period start: 24 August 2019 00:00
Search period end: 03 September 2019 00:00
Orbit: 1501 x 1683 km, 47.2° (Epoch: 24 August)

Date Brightness Start Highest point End Pass type
(mag) Time Alt. Az. Time Alt. Az. Time Alt. Az.
29 Aug 9.3 17:40:44 10° S 17:41:15 11° SSE 17:41:15 11° SSE visible
30 Aug 9.2 17:16:21 10° SSE 17:18:06 13° SSE 17:18:06 13° SSE visible
31 Aug 9.1 16:52:13 10° SSE 16:55:04 13° SE 16:55:04 13° SE visible
31 Aug 9.3 18:51:21 10° SSW 18:53:09 17° SSW 18:53:09 17° SSW visible
01 Sep 9.1 16:28:45 10° SSE 16:31:04 11° SE 16:32:08 11° SE visible
01 Sep 8.8 18:26:15 10° SSW 18:30:14 28° SSW 18:30:14 28° SSW visible
02 Sep 8.2 18:01:11 10° SSW 18:07:28 41° S 18:07:28 41° S visible
